This demonstration page uses our WeatherBlox Daily Observations layout. Learn more.

Left ArrowRight Arrow

53.62937, 11.41316

Hourly Observations for May 27, 2019

Temp ( °F °C ) Dew Point ( °F °C ) Humidity (%) Winds ( mph kmh ) Pressure ( in mb ) Visibility ( mi km ) Precip ( " mm )
6:50 am 06:50 Partly Cloudy 55 13 52 11 88 88 W 12 19 29.68 1005 30 48 N/A
7:20 am 07:20 Partly Cloudy 55 13 52 11 88 88 W 10 17 29.68 1005 30 48 N/A
7:50 am 07:50 Partly Cloudy 57 14 52 11 82 82 W 10 17 29.68 1005 30 48 N/A
8:20 am 08:20 Partly Cloudy 57 14 52 11 82 82 W 9 15 29.68 1005 30 48 N/A
8:50 am 08:50 Partly Cloudy 57 14 52 11 82 82 W 8 13 29.68 1005 30 48 N/A
9:20 am 09:20 Partly Cloudy 59 15 50 10 72 72 W 13 20 29.71 1006 30 48 N/A
9:50 am 09:50 Partly Cloudy 59 15 50 10 72 72 WSW 16 26 29.71 1006 30 48 N/A
10:20 am 10:20 Partly Cloudy 59 15 48 9 68 68 W 14 22 29.71 1006 30 48 N/A
10:50 am 10:50 Partly Cloudy 59 15 46 8 63 63 W 15 24 29.71 1006 30 48 N/A
11:20 am 11:20 Mostly Sunny 59 15 46 8 63 63 W 14 22 29.71 1006 7 11 N/A
11:50 am 11:50 Mostly Sunny 61 16 46 8 59 59 WSW 18 30 29.71 1006 7 11 N/A
12:20 pm 12:20 Mostly Sunny 61 16 45 7 55 55 W 16 26 29.71 1006 7 11 N/A
12:50 pm 12:50 Mostly Sunny 63 17 46 8 56 56 W 14 22 29.74 1007 7 11 N/A
1:20 pm 13:20 Partly Cloudy 63 17 45 7 52 52 W 14 22 29.74 1007 30 48 N/A
1:50 pm 13:50 Partly Cloudy 61 16 45 7 55 55 W 8 13 29.74 1007 30 48 N/A
2:20 pm 14:20 Partly Cloudy 61 16 45 7 55 55 W 8 13 29.74 1007 30 48 N/A
2:50 pm 14:50 Mostly Sunny 63 17 43 6 49 49 W 13 20 29.74 1007 7 11 N/A
3:20 pm 15:20 Mostly Sunny 63 17 45 7 52 52 W 12 19 29.74 1007 30 48 N/A
3:50 pm 15:50 Mostly Sunny 63 17 45 7 52 52 W 10 17 29.74 1007 30 48 N/A
4:20 pm 16:20 Mostly Sunny 61 16 46 8 59 59 W 7 11 29.74 1007 30 48 N/A
4:50 pm 16:50 Mostly Sunny 63 17 45 7 52 52 W 6 9 29.74 1007 7 11 N/A
5:20 pm 17:20 Mostly Sunny 63 17 46 8 56 56 WSW 14 22 29.74 1007 7 11 N/A
5:50 pm 17:50 Mostly Sunny 64 18 45 7 49 49 W 10 17 29.71 1006 30 48 N/A
6:20 pm 18:20 Mostly Sunny 63 17 46 8 56 56 W 8 13 29.71 1006 30 48 N/A
6:50 pm 18:50 Mostly Sunny 61 16 48 9 63 63 W 7 11 29.71 1006 7 11 N/A
7:20 pm 19:20 Mostly Sunny 59 15 48 9 68 68 WNW 6 9 29.71 1006 7 11 N/A
7:50 pm 19:50 Mostly Sunny 59 15 48 9 68 68 W 5 7 29.71 1006 7 11 N/A
8:20 pm 20:20 Mostly Sunny 59 15 48 9 68 68 W 5 7 29.71 1006 7 11 N/A
8:50 pm 20:50 Mostly Sunny 57 14 48 9 72 72 W 3 6 29.71 1006 30 48 N/A

Powered by AerisWeather